Location: Lake Almanor
(40.2485°N, 121.1442°W)
Time: 02:29:55
(UTC-08:00)

STARLINK-1069 - Pass Details

Date: 29 January 2020
Orbit: 349 x 350 km, 53.0° (Epoch: 18 February)

Event Time Altitude Azimuth Distance (km) Brightness Sun altitude
Rises 18:56:56 0° 315° (NW) 2,158 7.2 -18.8°
Reaches altitude 10° 18:59:03 10° 325° (NW) 1,313 5.9 -19.2°
Enters shadow 19:00:29 23° 345° (NNW) 813 4.5 -19.4°
